Weather History for KHZR - March, 2014

Change the Weather History Date:

Sunday, March 9, 2014

  Actual Average (KBTR) Record (KBTR)
Temperature  
Mean Temperature 60 °F 60 °F  
Max Temperature 70 °F 71 °F 88 °F (1911)
Min Temperature 50 °F 49 °F 23 °F (1996)
Degree Days  
Heating Degree Days 5 7  
Month to date heating degree days 65  
Since 1 July heating degree days 1400  
Cooling Degree Days 0 2  
Month to date cooling degree days 11  
Year to date cooling degree days 42  
Growing Degree Days 10 (Base 50)    
Moisture  
Dew Point 53 °F    
Average Humidity 80    
Maximum Humidity 99    
Minimum Humidity 55    
Precipitation  
Precipitation 0.00 in 0.14 in 2.00 in (1905)
Month to date precipitation 1.36  
Year to date precipitation 12.12  
Snow  
Snow 0.00 in - - ()
Month to date snowfall  
Since 1 July snowfall  
Snow Depth -    
Sea Level Pressure  
Sea Level Pressure 30.19 in    
Wind  
Wind Speed 2 mph (NW)    
Max Wind Speed 9 mph    
Max Gust Speed -    
Visibility 10 miles    
Events      
T = Trace of Precipitation, MM = Missing Value Source: NWS Daily Summary

Daily Weather History Graph

Daily Weather History Graph

Search for Another Location

Airport or City:

Trip Planner

Search our weather history database for the weather conditions in past years. The results will help you decide how hot, cold, wet, or windy it might be!

Date:

Astronomy

Mar. 09, 2014 Rise Set
Actual Time 7:23 AM CDT 7:10 PM CDT
Civil Twilight 6:58 AM CDT 7:34 PM CDT
Nautical Twilight 6:31 AM CDT 8:02 PM CDT
Astronomical Twilight 6:03 AM CDT 8:30 PM CDT
Moon 1:19 PM CDT (3/9) 3:32 AM CDT (3/9)
Length of Visible Light 12h 35m
Length of Day
11h 47m
First Quarter, 61% of the Moon is Illuminated
Mar 9
First Quarter
Mar 16
Full
Mar 23
Last Quarter
Mar 30
New
Apr 7
First Quarter

Hourly Weather History & Observations

Time (CDT) Temp. Dew Point Humidity Pressure Visibility Wind Dir Wind Speed Gust Speed Precip Events Conditions
12:15 AM 56.3 °F 53.2 °F 89% 30.18 in 10.0 mi NW 3.5 mph - N/A   Clear
12:35 AM 55.4 °F 53.4 °F 93% 30.18 in 10.0 mi Calm Calm - N/A   Clear
12:55 AM 54.9 °F 52.9 °F 93% 30.18 in 10.0 mi Calm Calm - N/A   Clear
1:15 AM 55.0 °F 53.6 °F 95% 30.18 in 10.0 mi Calm Calm - N/A   Clear
1:35 AM 54.9 °F 53.6 °F 96% 30.17 in 10.0 mi ENE 3.5 mph - N/A   Clear
1:55 AM 54.5 °F 53.1 °F 95% 30.17 in 10.0 mi Calm Calm - N/A   Clear
3:15 AM 53.4 °F 52.2 °F 95% 30.17 in 10.0 mi Calm Calm - N/A   Clear
3:35 AM 53.8 °F 52.7 °F 96% 30.17 in 10.0 mi Calm Calm - N/A   Scattered Clouds
3:55 AM 53.6 °F 52.5 °F 96% 30.18 in 10.0 mi Calm Calm - N/A   Scattered Clouds
4:15 AM 53.4 °F 52.0 °F 95% 30.17 in 10.0 mi Calm Calm - N/A   Light Drizzle
4:35 AM 52.9 °F 52.0 °F 97% 30.17 in 10.0 mi Calm Calm - N/A   Clear
4:55 AM 52.9 °F 52.0 °F 97% 30.17 in 7.0 mi Calm Calm - N/A   Clear
5:15 AM 52.3 °F 51.8 °F 98% 30.17 in 7.0 mi NNW 3.5 mph - N/A   Clear
5:35 AM 52.2 °F 51.4 °F 97% 30.18 in 10.0 mi NW 3.5 mph - N/A   Clear
5:55 AM 52.2 °F 51.4 °F 97% 30.18 in 10.0 mi Calm Calm - N/A   Clear
6:15 AM 52.3 °F 51.6 °F 97% 30.18 in 10.0 mi Calm Calm - N/A   Clear
6:30 AM 52.0 °F 51.3 °F 97% 30.18 in 7.0 mi Calm Calm - N/A   Clear
6:55 AM 51.8 °F 51.3 °F 98% 30.19 in 7.0 mi Calm Calm - N/A   Clear
7:15 AM 50.9 °F 50.2 °F 97% 30.19 in 7.0 mi Calm Calm - N/A   Clear
7:35 AM 51.1 °F 50.7 °F 99% 30.20 in 7.0 mi Calm Calm - N/A   Clear
7:55 AM 50.2 °F 49.6 °F 98% 30.19 in 7.0 mi Calm Calm - N/A   Clear
8:15 AM 52.5 °F 52.2 °F 99% 30.20 in 7.0 mi Calm Calm - N/A   Clear
8:35 AM 55.2 °F 53.6 °F 94% 30.21 in 10.0 mi Calm Calm - N/A   Clear
8:55 AM 57.2 °F 54.0 °F 89% 30.22 in 10.0 mi Calm Calm - N/A   Clear
9:15 AM 59.4 °F 54.5 °F 84% 30.23 in 10.0 mi Calm Calm - N/A   Clear
9:35 AM 60.4 °F 54.7 °F 81% 30.23 in 10.0 mi Calm Calm - N/A   Clear
9:55 AM 61.3 °F 54.7 °F 79% 30.24 in 10.0 mi Calm Calm - N/A   Clear
10:15 AM 62.4 °F 55.6 °F 78% 30.25 in 10.0 mi NW 9.2 mph - N/A   Clear
10:35 AM 63.1 °F 54.3 °F 73% 30.25 in 10.0 mi WNW 6.9 mph - N/A   Clear
10:55 AM 63.1 °F 54.1 °F 72% 30.26 in 10.0 mi WNW 5.8 mph - N/A   Clear
11:10 AM 64.4 °F 54.3 °F 70% 30.26 in 10.0 mi NW 6.9 mph - N/A   Clear
11:35 AM 66.6 °F 54.1 °F 64% 30.25 in 10.0 mi Calm Calm - N/A   Clear
11:55 AM 68.2 °F 54.1 °F 61% 30.25 in 10.0 mi North 3.5 mph - N/A   Clear
12:15 PM 68.9 °F 53.2 °F 57% 30.23 in 10.0 mi NE 4.6 mph - N/A   Clear
12:35 PM 68.7 °F 52.5 °F 56% 30.23 in 10.0 mi Calm Calm - N/A   Scattered Clouds
12:55 PM 68.0 °F 54.3 °F 62% 30.23 in 10.0 mi NNW 6.9 mph - N/A   Overcast
1:15 PM 67.8 °F 53.8 °F 61% 30.22 in 10.0 mi NNW 3.5 mph - N/A   Overcast
1:35 PM 68.0 °F 53.4 °F 60% 30.22 in 10.0 mi West 4.6 mph - N/A   Overcast
1:55 PM 68.2 °F 53.4 °F 59% 30.21 in 10.0 mi North - - N/A   Overcast
2:15 PM 68.4 °F 54.0 °F 60% 30.20 in 10.0 mi WNW 3.5 mph - N/A   Overcast
2:35 PM 68.2 °F 53.1 °F 58% 30.20 in 10.0 mi Calm Calm - N/A   Overcast
2:55 PM 68.4 °F 53.2 °F 58% 30.19 in 10.0 mi Calm Calm - N/A   Overcast
3:15 PM 68.4 °F 53.2 °F 58% 30.18 in 10.0 mi Calm Calm - N/A   Overcast
3:35 PM 68.9 °F 53.1 °F 57% 30.18 in 10.0 mi Calm Calm - N/A   Overcast
3:55 PM 68.9 °F 52.9 °F 57% 30.16 in 10.0 mi NNE 4.6 mph - N/A   Scattered Clouds
4:15 PM 69.1 °F 52.9 °F 56% 30.16 in 10.0 mi Calm Calm - N/A   Clear
4:35 PM 69.1 °F 53.8 °F 58% 30.15 in 10.0 mi NW 3.5 mph - N/A   Clear
4:55 PM 68.9 °F 53.1 °F 57% 30.15 in 10.0 mi NW 5.8 mph - N/A   Clear
5:15 PM 69.3 °F 53.2 °F 57% 30.15 in 10.0 mi NW 5.8 mph - N/A   Clear
5:35 PM 69.1 °F 53.2 °F 57% 30.14 in 10.0 mi NW 3.5 mph - N/A   Clear
5:55 PM 70.0 °F 53.1 °F 55% 30.13 in 10.0 mi North 5.8 mph - N/A   Clear
6:15 PM 69.1 °F 53.8 °F 58% 30.14 in 10.0 mi NNW 3.5 mph - N/A   Clear
6:35 PM 67.1 °F 54.3 °F 63% 30.15 in 10.0 mi NW 6.9 mph - N/A   Clear
6:55 PM 65.7 °F 54.7 °F 68% 30.15 in 10.0 mi WNW 4.6 mph - N/A   Clear
7:15 PM 63.9 °F 55.6 °F 74% 30.16 in 10.0 mi West 6.9 mph - N/A   Clear
7:35 PM 63.1 °F 55.8 °F 77% 30.16 in 10.0 mi Calm Calm - N/A   Clear
7:55 PM 62.2 °F 55.4 °F 78% 30.17 in 10.0 mi Calm Calm - N/A   Clear
8:15 PM 61.3 °F 54.5 °F 78% 30.18 in 10.0 mi WSW 3.5 mph - N/A   Clear
8:35 PM 60.4 °F 55.0 °F 82% 30.18 in 10.0 mi Calm Calm - N/A   Clear
8:55 PM 59.9 °F 54.5 °F 82% 30.18 in 10.0 mi Calm Calm - N/A   Clear
9:15 PM 59.4 °F 54.7 °F 84% 30.19 in 10.0 mi Calm Calm - N/A   Clear
9:35 PM 59.2 °F 54.9 °F 86% 30.19 in 10.0 mi West 3.5 mph - N/A   Clear
9:55 PM 58.1 °F 55.0 °F 90% 30.20 in 10.0 mi Calm Calm - N/A   Clear
10:15 PM 57.7 °F 54.0 °F 87% 30.20 in 10.0 mi NNW 5.8 mph - N/A   Clear
10:35 PM 57.7 °F 52.7 °F 83% 30.19 in 10.0 mi Calm Calm - N/A   Clear
10:55 PM 57.2 °F 53.4 °F 87% 30.20 in 10.0 mi NW 4.6 mph - N/A   Clear
11:15 PM 56.3 °F 53.2 °F 89% 30.19 in 10.0 mi WNW 4.6 mph - N/A   Clear
11:35 PM 55.9 °F 52.9 °F 89% 30.19 in 10.0 mi Calm Calm - N/A   Clear
11:55 PM 55.4 °F 53.8 °F 94% 30.18 in 10.0 mi Calm Calm - N/A   Clear
12:10 AM 54.7 °F 53.6 °F 96% 30.18 in 10.0 mi Calm Calm - N/A   Clear
12:35 AM 53.4 °F 52.0 °F 95% 30.18 in 10.0 mi Calm Calm - N/A   Clear
12:55 AM 52.0 °F 50.9 °F 96% 30.18 in 10.0 mi NW 3.5 mph - N/A   Clear